STARLINK-11621 [DTC] (63273 NORAD) Tracking and Keplerian Element Data

This shows tracking and keplerian element data for the satellite.

Feedback or suggestion? Click here.




ElementValue
Catalog63273
NameSTARLINK-11621 [DTC]
Epoch Orbit4514
Epoch Day354.01731128
Epoch Year2025
RAAN232.0615
Inclination43.0001
Eccentricity0.0002332
Argument of Perigee265.8553
Mean Anonmoly94.2048
Mean Motion15.70876733
Decay Rate0.00198477
L11 63273U 25053J 25354.01731128 .00198477 00000+0 15112-2 0 9995
L22 63273 43.0001 232.0615 0002332 265.8553 94.2048 15.70876733 45142



Live tracking and technical data element details for STARLINK-11621 [DTC] (NORAD 63273). STARLINK-11621 [DTC] can be tracked NOW for your location showing map with azimuth and elevation plus other details from your city location.







IsCatalogInMostPopularTable: catalog: 63273, numindb: 2
Update: records affected: 1



GetName: 63273 STARLINK-11621 [DTC]

Hit Count: updated at: Tue, 10 Feb 2026 03:24:39 GMT